Regional Weather Roundup
Issued by NWS Upton, NY

Current Version | Previous Version | Graphics & Text | Print | Product List | Glossary Off
Versions: 1 2 3 4 5 6 7 8 9 10 11 12 13 14 15 16 17 18 19 20 21 22 23 24 25 26 27

000
ASUS41 KOKX 231105
RWROKX

REGIONAL WEATHER ROUNDUP
NATIONAL WEATHER SERVICE NEW YORK NY
700 AM EDT THU OCT 23 2014

NOTE: "FAIR" INDICATES FEW OR NO CLOUDS BELOW 12,000 FEET WITH NO
SIGNIFICANT WEATHER AND/OR OBSTRUCTIONS TO VISIBILITY.

NYZ071-072-176-178-NJZ106-104-231200-
NEW YORK CITY METRO AREA


CITY           SKY/WX    TMP DP  RH WIND       PRES   REMARKS
CENTRAL PARK   CLOUDY    51  47  86 N9        29.73S
LAGUARDIA APRT CLOUDY    52  47  83 N13G24    29.69F
KENNEDY INTL   CLOUDY    52  47  83 N21       29.68F
NEWARK/LIBERTY LGT RAIN  52  48  86 N18       29.71F FOG
BRNX BOT. GARD   N/A     50  46  87 NE13      29.72F
TETERBORO      LGT RAIN  52  46  80 N10G20    29.70S
$$

NYZ177-179-078>081-231200-
LONG ISLAND NEW YORK

CITY           SKY/WX    TMP DP  RH WIND       PRES   REMARKS
FARMINGDALE    CLOUDY    52  48  86 N16G22    29.65F
ISLIP          LGT RAIN  51  47  86 N17G25    29.62S FOG
SHIRLEY        CLOUDY    51  48  89 N14       29.63F
WESTHAMPTON    CLOUDY    53  48  83 N18       29.61F
MONTAUK POINT    N/A     54  50  86 N21G37    29.57F
$$

NYZ052-065-067-231200-
HUDSON VALLEY

CITY           SKY/WX    TMP DP  RH WIND       PRES   REMARKS
WHITE PLAINS   LGT RAIN  49  45  86 N18G32    29.67F
NEWBURGH       NOT AVBL
MONTGOMERY     LGT RAIN  49  47  93 N6        29.75F
POUGHKEEPSIE   LGT RAIN  49  45  86 N13G21    29.75F
ALBANY         LGT RAIN  46  43  89 N8        29.87R FOG
$$

NJZ001-105-106-008-010-013-015-019>022-104-231200-
NEW JERSEY

CITY           SKY/WX    TMP DP  RH WIND       PRES   REMARKS
NEWARK/LIBERTY LGT RAIN  52  48  86 N18       29.71F FOG
TETERBORO      LGT RAIN  52  46  80 N10G20    29.70S
CALDWELL       CLOUDY    52  45  77 NE8G18    29.72F
MORRISTOWN     LGT RAIN  52  50  93 N8G17     29.73S
SOMERVILLE     LGT RAIN  52  46  80 N8        29.72F
SUSSEX         LGT RAIN  52  46  80 VRB6      29.76S
ANDOVER          N/A     49  46  90 N12G17    29.76S
TRENTON        LGT RAIN  50  47  89 NW9       29.73F
MILLVILLE      CLOUDY    52  45  77 NW12      29.75R
ATLANTIC CITY  CLOUDY    51  48  89 NW15      29.71S
WRIGHTSTOWN    LGT RAIN  50  48  93 NW17      29.70F
TOMS RIVER     CLOUDY    52  48  87 NW6       29.70S
BELMAR         CLOUDY    52  45  76 NW15G22   29.69S
$$

PAZ047>061-062-071-231200-
EASTERN PENNSYLVANIA

CITY           SKY/WX    TMP DP  RH WIND       PRES   REMARKS
PHILADELPHIA   RAIN      51  45  79 NW17G23   29.77S
ALLENTOWN      LGT RAIN  51  42  71 NW14G23   29.79F
SCRANTON       RAIN      47  42  83 N9G21     29.86S
$$

CTZ002-004>006-009-010-012-RIZ004-006-007-MAZ004-011-015-231200-
SOUTHERN NEW ENGLAND
 IN CT

CITY           SKY/WX    TMP DP  RH WIND       PRES   REMARKS
BRADLEY INTL   LGT RAIN  51  46  83 N22G29    29.67F
HARTFORD       LGT RAIN  50  46  86 N13G24    29.66F
DANBURY        LGT RAIN  49  44  83 NW7       29.71F
WTRBRY/OXFORD  LGT RAIN  48  43  81 N18G26    29.68S
BRIDGEPORT     LGT RAIN  52  47  83 N20G32    29.64F
MERIDEN        CLOUDY    51  46  83 N13G30    29.66F
NEW HAVEN      CLOUDY    52  47  83 N22G31    29.62F
CHESTER        CLOUDY    48  46  93 N14       29.64S
GROTON         CLOUDY    51  47  86 N21G30    29.58S
WILLIMANTIC    CLOUDY    52  45  77 NE12G22   29.65F

 IN RI

CITY           SKY/WX    TMP DP  RH WIND       PRES   REMARKS
PROVIDENCE     LGT RAIN  53  49  86 N28G39    29.57F
BLOCK ISLAND   CLOUDY    54  48  82 N20G30    29.55S
WESTERLY       CLOUDY    53  48  83 N12G33    29.59S

 IN MA

CITY           SKY/WX    TMP DP  RH WIND       PRES   REMARKS
BOSTON         HVY RAIN  50  50 100 N16       29.70R FOG
WORCESTER      LGT RAIN  46  44  93 N18G28    29.70S
WESTFIELD      LGT RAIN  50  47  89 N24G32    29.70F
PROVINCETOWN   CLOUDY    57   3  11 N15G21    29.57F
NANTUCKET      PTCLDY    56  54  93 NE10      29.52F
$$

ANZ330-335-338-340-345-350-353-355-231200-
COASTAL MARINE OBSERVATIONS


STATION/POSITION TIME  SKY/WX   TEMP    WIND        PRES    VSBY  WAVE
                                AIR SEA DIR/SP/G                  HT/PER
                 (UTC)          (F)     (DEG/KT/KT) (MB)    (MI)  (FT/S)
NY HARB ENTRANCE NOT AVBL
4S FIRE IS       1100               63                N/A           6/ 7
20S FIRE ISLAND  1100            55 64  360/ 29/ 35 1001.3          9/ 7
23SW MTP         1100                                 N/A           9/ 7
HUDSON CANYON    1100            60 67   10/ 25/ 33  999.1         12/ 8
EXECUTION ROCKS  1100            53 62  350/ 14/ 19   N/A
WESTERN LI SOUND 1100            53     350/ 10/ 16   N/A           3/ 6
CENTRAL LI SOUND 1100            53 63  360/ 21/ 27   N/A           4/ 4
EASTERN LI SOUND 1000            54 63   30/ 21/ 29   N/A
ROBBINS REEF     1000            52     350/ 17/ 21 1004.6
$$


>>>>>>>>>>>>>>>>>>>>>>>>>>>> KEY <<<<<<<<<<<<<<<<<<<<<<<<<<<
>                                                          <
>     SKY/WX - SKY CONDITION/PRESENT WEATHER               <
>     TMP    - TEMPERATURE IN FAHRENHEIT                   <
>     DP     - DEWPOINT IN FAHRENHEIT                      <
>     RH     - RELATIVE HUMIDITY IN PERCENT                <
>     WIND   - DIRECTION AND SPEED IN MPH                  <
>     PRES   - MEAN SEA LEVEL PRESSURE IN INCHES OF HG     <
>     WCI    - WIND CHILL INDEX                            <
>     VSB    - VISIBILITY IN MILES                         <
>     HX     - HEAT INDEX                                  <
>     TC     - TEMPERATURE IN CELSIUS                      <
>     VRB    - VARIABLE WIND DIRECTION                     <
>                                                          <
>>>>>>>>>>>>>>>>>>>>>>>>>>>> KEY <<<<<<<<<<<<<<<<<<<<<<<<<<<





USA.gov is the U.S. government's official web portal to all federal, state and local government web resources and services.